When you browse on this site, cookies collect data to enhance your experience and personalize the content and advertising you see.
Visit our Privacy Policy to learn more. By continuing to use the site, you agree to this use of cookies and data.
  • en France
  • Liste des pays
  • À 7 jours
  • Température de l'eau
  • Carte météo
  • Widgets météo
  • user-avatar
    Se connecter

    Météo par heure à Trnava

    Ce jour, 31 Mai, Dimanche

    Heure Température Précipitation Vent Pression Humidité
    00:00 +10°C° 0 mm 3 m/s 749 mmHg 82%
    01:00 +10°C° 0 mm 3 m/s 749 mmHg 79%
    02:00 +10°C° 0 mm 3 m/s 749 mmHg 80%
    03:00 +9°C° 0 mm 3 m/s 748 mmHg 82%
    04:00 +9°C° 0 mm 3 m/s 748 mmHg 83%
    05:00 +8°C° 0.2 mm 4 m/s 748 mmHg 84%
    06:00 +9°C° 0.2 mm 5 m/s 748 mmHg 84%
    07:00 +9°C° 0 mm 6 m/s 748 mmHg 84%
    08:00 +9°C° 0.7 mm 6 m/s 748 mmHg 86%
    09:00 +9°C° 0.7 mm 7 m/s 748 mmHg 87%
    10:00 +9°C° 0.7 mm 7 m/s 748 mmHg 89%
    11:00 +9°C° 0.5 mm 7 m/s 748 mmHg 89%
    12:00 +9°C° 0.5 mm 7 m/s 748 mmHg 89%
    13:00 +9°C° 0.5 mm 7 m/s 748 mmHg 90%
    14:00 +9°C° 0.3 mm 7 m/s 748 mmHg 90%
    15:00 +10°C° 0.3 mm 6 m/s 748 mmHg 90%
    16:00 +10°C° 0.3 mm 6 m/s 748 mmHg 90%
    17:00 +10°C° 0.1 mm 6 m/s 748 mmHg 90%
    18:00 +10°C° 0.1 mm 5 m/s 748 mmHg 91%
    19:00 +10°C° 0.1 mm 5 m/s 748 mmHg 91%
    20:00 +10°C° 0 mm 5 m/s 748 mmHg 92%
    21:00 +12°C° 0 mm 4 m/s 748 mmHg 92%
    22:00 +12°C° 0 mm 4 m/s 749 mmHg 93%
    23:00 +11°C° 0 mm 4 m/s 749 mmHg 93%

    Demain, 1 Juin, Lundi

    Heure Température Précipitation Vent Pression Humidité
    00:00 +11°C° 0 mm 4 m/s 749 mmHg 93%
    01:00 +11°C° 0 mm 3 m/s 750 mmHg 93%
    02:00 +11°C° 0 mm 4 m/s 750 mmHg 93%
    03:00 +10°C° 0 mm 4 m/s 750 mmHg 93%
    04:00 +10°C° 0 mm 4 m/s 750 mmHg 92%
    05:00 +11°C° 0 mm 4 m/s 750 mmHg 88%
    06:00 +13°C° 0 mm 4 m/s 750 mmHg 83%
    07:00 +15°C° 0 mm 5 m/s 751 mmHg 78%
    08:00 +16°C° 0 mm 5 m/s 751 mmHg 71%
    09:00 +17°C° 0 mm 5 m/s 751 mmHg 65%
    10:00 +20°C° 0 mm 6 m/s 751 mmHg 58%
    11:00 +20°C° 0 mm 6 m/s 751 mmHg 57%
    12:00 +20°C° 0 mm 6 m/s 751 mmHg 56%
    13:00 +21°C° 0 mm 6 m/s 750 mmHg 55%
    14:00 +21°C° 0 mm 6 m/s 750 mmHg 55%
    15:00 +20°C° 0 mm 6 m/s 750 mmHg 55%
    16:00 +20°C° 0 mm 7 m/s 750 mmHg 55%
    17:00 +19°C° 0 mm 6 m/s 750 mmHg 60%
    18:00 +16°C° 0 mm 5 m/s 750 mmHg 65%
    19:00 +15°C° 0 mm 5 m/s 750 mmHg 69%
    20:00 +14°C° 0 mm 4 m/s 750 mmHg 70%
    21:00 +12°C° 0 mm 4 m/s 750 mmHg 71%
    22:00 +11°C° 0 mm 3 m/s 751 mmHg 71%
    23:00 +10°C° 0 mm 3 m/s 751 mmHg 72%

    Après-demain, 2 Juin, Mardi

    Heure Température Précipitation Vent Pression Humidité
    00:00 +9°C° 0 mm 3 m/s 751 mmHg 73%
    01:00 +9°C° 0 mm 3 m/s 751 mmHg 74%
    02:00 +8°C° 0 mm 3 m/s 750 mmHg 77%
    03:00 +8°C° 0 mm 3 m/s 750 mmHg 80%
    04:00 +8°C° 0 mm 3 m/s 750 mmHg 83%
    05:00 +8°C° 0 mm 4 m/s 750 mmHg 79%
    06:00 +11°C° 0 mm 4 m/s 750 mmHg 74%
    07:00 +13°C° 0 mm 5 m/s 749 mmHg 70%
    08:00 +14°C° 0 mm 5 m/s 749 mmHg 67%
    09:00 +15°C° 0 mm 5 m/s 749 mmHg 63%
    10:00 +16°C° 0 mm 6 m/s 749 mmHg 60%
    11:00 +16°C° 0.1 mm 5 m/s 748 mmHg 62%
    12:00 +16°C° 0.1 mm 5 m/s 748 mmHg 64%
    13:00 +15°C° 0.1 mm 4 m/s 747 mmHg 67%
    14:00 +16°C° 0.1 mm 5 m/s 747 mmHg 63%
    15:00 +17°C° 0.1 mm 5 m/s 747 mmHg 58%
    16:00 +19°C° 0.1 mm 5 m/s 746 mmHg 54%
    17:00 +17°C° 0 mm 5 m/s 746 mmHg 61%
    18:00 +15°C° 0 mm 4 m/s 746 mmHg 68%
    19:00 +14°C° 0 mm 3 m/s 746 mmHg 75%
    20:00 +13°C° 0 mm 3 m/s 746 mmHg 78%
    21:00 +12°C° 0 mm 3 m/s 746 mmHg 81%
    22:00 +10°C° 0 mm 3 m/s 746 mmHg 84%
    23:00 +10°C° 0 mm 2 m/s 746 mmHg 86%

    3 Juin, Mercredi

    Heure Température Précipitation Vent Pression Humidité
    00:00 +9°C° 0 mm 2 m/s 745 mmHg 88%
    01:00 +9°C° 0 mm 2 m/s 745 mmHg 90%
    02:00 +9°C° 0 mm 2 m/s 745 mmHg 88%
    03:00 +9°C° 0 mm 2 m/s 745 mmHg 86%
    04:00 +9°C° 0 mm 2 m/s 745 mmHg 84%
    05:00 +10°C° 0.1 mm 2 m/s 744 mmHg 84%
    06:00 +12°C° 0.1 mm 2 m/s 744 mmHg 83%
    07:00 +14°C° 0.1 mm 2 m/s 744 mmHg 83%
    08:00 +14°C° 0 mm 3 m/s 744 mmHg 79%
    09:00 +17°C° 0 mm 3 m/s 744 mmHg 74%
    10:00 +18°C° 0 mm 3 m/s 744 mmHg 70%
    11:00 +19°C° 0.4 mm 3 m/s 743 mmHg 69%
    12:00 +19°C° 0.4 mm 3 m/s 743 mmHg 67%
    13:00 +20°C° 0.4 mm 3 m/s 743 mmHg 66%
    14:00 +20°C° 0.4 mm 3 m/s 742 mmHg 67%
    15:00 +20°C° 0.4 mm 3 m/s 742 mmHg 68%
    16:00 +20°C° 0.4 mm 3 m/s 742 mmHg 69%
    17:00 +19°C° 0 mm 2 m/s 742 mmHg 72%
    18:00 +19°C° 0 mm 1 m/s 742 mmHg 76%
    19:00 +18°C° 0 mm 1 m/s 742 mmHg 79%
    20:00 +16°C° 0 mm 1 m/s 742 mmHg 81%
    21:00 +15°C° 0 mm 1 m/s 742 mmHg 83%
    22:00 +14°C° 0 mm 1 m/s 742 mmHg 85%
    23:00 +13°C° 0 mm 0 m/s 742 mmHg 86%

    4 Juin, Jeudi

    Heure Température Précipitation Vent Pression Humidité
    00:00 +12°C° 0 mm 0 m/s 742 mmHg 87%
    01:00 +12°C° 0 mm 0 m/s 741 mmHg 88%
    02:00 +12°C° 0 mm 1 m/s 741 mmHg 89%
    03:00 +12°C° 0 mm 1 m/s 741 mmHg 90%
    04:00 +12°C° 0 mm 1 m/s 741 mmHg 91%
    05:00 +13°C° 0 mm 1 m/s 741 mmHg 87%
    06:00 +15°C° 0 mm 1 m/s 741 mmHg 83%
    07:00 +16°C° 0 mm 1 m/s 741 mmHg 79%
    08:00 +18°C° 0 mm 2 m/s 741 mmHg 74%
    09:00 +20°C° 0 mm 2 m/s 741 mmHg 69%
    10:00 +21°C° 0 mm 2 m/s 741 mmHg 65%
    11:00 +22°C° 0 mm 3 m/s 740 mmHg 63%
    12:00 +24°C° 0 mm 3 m/s 740 mmHg 61%
    13:00 +25°C° 0 mm 3 m/s 740 mmHg 59%
    14:00 +25°C° 0.1 mm 3 m/s 739 mmHg 59%
    15:00 +25°C° 0.1 mm 3 m/s 739 mmHg 59%
    16:00 +26°C° 0.1 mm 3 m/s 739 mmHg 59%
    17:00 +24°C° 0.5 mm 3 m/s 739 mmHg 66%
    18:00 +23°C° 0.5 mm 2 m/s 738 mmHg 74%
    19:00 +20°C° 0.5 mm 2 m/s 738 mmHg 81%
    20:00 +19°C° 1.6 mm 3 m/s 738 mmHg 85%
    21:00 +18°C° 1.6 mm 4 m/s 739 mmHg 89%
    22:00 +16°C° 1.6 mm 6 m/s 739 mmHg 93%
    23:00 +16°C° 1.1 mm 5 m/s 739 mmHg 94%

    5 Juin, Vendredi

    Heure Température Précipitation Vent Pression Humidité
    00:00 +15°C° 1.1 mm 5 m/s 740 mmHg 94%
    01:00 +15°C° 1.1 mm 4 m/s 740 mmHg 94%
    02:00 +14°C° 0.2 mm 3 m/s 740 mmHg 94%
    03:00 +14°C° 0.2 mm 3 m/s 741 mmHg 95%
    04:00 +14°C° 0.2 mm 2 m/s 741 mmHg 95%
    05:00 +15°C° 0 mm 2 m/s 741 mmHg 92%
    06:00 +16°C° 0 mm 2 m/s 741 mmHg 90%
    07:00 +17°C° 0 mm 2 m/s 742 mmHg 87%
    08:00 +18°C° 0.5 mm 3 m/s 742 mmHg 84%
    09:00 +19°C° 0.5 mm 3 m/s 742 mmHg 82%
    10:00 +20°C° 0.5 mm 4 m/s 742 mmHg 79%
    11:00 +21°C° 0.7 mm 3 m/s 742 mmHg 77%
    12:00 +21°C° 0.7 mm 3 m/s 742 mmHg 76%
    13:00 +22°C° 0.7 mm 3 m/s 742 mmHg 74%
    14:00 +22°C° 0.1 mm 3 m/s 742 mmHg 71%
    15:00 +23°C° 0.1 mm 2 m/s 742 mmHg 68%
    16:00 +24°C° 0.1 mm 1 m/s 742 mmHg 65%
    17:00 +23°C° 0 mm 1 m/s 742 mmHg 70%
    18:00 +22°C° 0 mm 1 m/s 742 mmHg 74%
    19:00 +21°C° 0 mm 1 m/s 742 mmHg 79%
    20:00 +20°C° 0 mm 1 m/s 742 mmHg 82%
    21:00 +18°C° 0 mm 2 m/s 742 mmHg 86%
    22:00 +17°C° 0 mm 2 m/s 743 mmHg 89%
    23:00 +16°C° 0.1 mm 2 m/s 742 mmHg 90%
    Voir plus